Wind_Speed
98 96 94 93 91 89 86 84 83 82 80 80 79 77 76 75 72 66 62 59 56 48 39 33 29 23 21 20 21 22 17 16 21 16 7 8 9 18 23 9 20 38 37 41 45 49 57 63 57 54 52 56 57 52
101 98 95 93 91 88 86 84 81 81 80 79 79 78 75 72 66 61 58 54 48 41 33 28 24 21 19 21 20 17 9 13 19 23 26 17 15 25 25 23 23 33 31 15 44 51 51 55 67 64 66 61 59 59
102 100 96 93 90 88 83 82 81 80 79 80 78 76 73 68 59 53 50 46 40 35 29 27 20 21 21 20 17 17 23 26 21 20 34 36 40 17 31 46 46 40 39 55 50 44 49 52 55 61 61 58 56 53
101 98 94 90 89 85 83 82 81 79 78 77 74 73 65 57 50 45 40 39 35 31 26 21 21 20 24 25 23 23 19 25 23 21 29 35 35 23 29 38 32 31 40 41 39 43 46 51 50 51 59 57 56 53
95 92 91 88 85 84 80 79 78 76 74 72 70 62 53 46 42 39 36 38 34 29 25 24 25 29 23 27 28 26 21 22 26 26 29 28 43 25 25 32 33 27 18 26 28 34 11 44 56 59 54 51 52 55
89 89 87 84 82 81 80 77 75 73 70 67 58 53 45 41 38 37 37 36 31 28 24 23 26 36 32 29 28 26 22 17 24 27 29 28 28 32 35 34 38 48 42 38 25 35 49 56 54 58 64 61 57 57
82 82 82 80 79 78 77 74 71 68 64 56 51 46 42 39 38 36 35 32 29 25 23 23 24 35 39 29 31 30 27 25 24 25 30 29 30 32 36 34 36 50 32 32 44 41 43 48 55 54 50 56 64 61
77 76 76 75 74 72 71 67 65 61 54 49 47 43 42 40 37 34 31 30 25 22 22 22 26 37 38 34 32 35 31 29 27 31 31 32 36 32 26 31 32 30 42 48 45 55 63 60 63 59 58 58 57 58
72 71 70 70 69 68 65 61 57 54 51 48 47 43 42 40 37 34 31 26 23 22 23 23 26 37 32 39 38 34 35 34 30 33 32 29 27 28 32 30 33 34 39 44 47 46 49 47 48 50 46 45 44 44
69 67 64 63 63 64 62 57 54 53 50 49 45 42 42 37 35 34 30 25 23 23 24 22 23 34 38 33 40 37 37 36 35 35 34 32 29 27 29 39 39 36 39 46 48 49 50 53 54 53 53 49 49 43
67 65 63 62 62 61 60 57 55 54 52 49 47 42 42 38 33 34 31 27 25 25 24 24 29 40 32 28 30 34 36 38 38 38 35 33 31 32 34 38 41 45 46 47 48 51 53 57 55 54 54 55 53 48
65 65 64 63 62 61 60 59 58 56 52 49 46 43 41 36 34 34 34 29 27 25 26 27 33 34 29 25 22 27 28 33 37 37 35 32 37 39 39 40 41 45 49 52 56 59 62 65 62 59 59 66 68 59
63 63 63 63 62 61 61 59 56 54 51 47 43 41 39 35 36 35 31 26 26 24 26 26 30 31 34 28 22 24 29 32 33 35 35 34 40 39 39 41 46 48 52 55 56 52 52 50 43 39 39 43 50 57
59 60 59 58 58 57 56 53 50 49 48 45 41 39 37 36 35 31 29 28 26 25 27 27 28 32 36 29 25 25 26 25 26 30 29 31 35 37 39 40 38 40 41 43 44 38 37 31 24 24 32 35 37 40
53 54 54 53 53 52 50 47 45 45 44 43 39 38 38 36 34 32 30 28 26 27 28 28 30 30 37 34 31 29 24 24 29 29 27 34 32 34 33 33 34 37 43 43 36 32 27 17 7 28 43 35 31 33
47 48 49 49 49 49 46 45 42 41 42 42 39 39 39 36 34 35 31 26 26 26 29 32 34 29 43 39 36 30 26 31 33 32 29 27 29 30 33 34 38 44 45 41 34 28 24 17 28 34 37 30 26 29
38 39 39 40 41 44 43 41 40 40 40 39 40 40 38 36 36 35 26 23 25 28 32 33 33 35 42 39 37 34 37 37 33 34 32 27 30 33 39 40 45 46 44 38 32 26 24 21 22 21 21 26 26 26
33 33 32 31 33 35 37 38 39 38 40 40 38 37 36 37 32 24 22 24 27 29 31 33 33 35 39 39 38 40 39 39 36 31 31 32 34 38 43 46 49 47 42 34 29 26 23 24 23 24 26 27 31 31
30 29 30 30 32 34 35 36 38 39 37 35 35 36 35 27 19 20 23 24 25 26 28 31 33 38 40 42 33 32 34 35 33 28 33 37 39 42 46 47 48 47 38 31 27 22 20 21 21 23 25 29 30 31
32 31 30 31 30 30 31 33 34 32 31 33 32 30 24 17 19 19 18 19 21 24 28 30 37 37 31 32 33 33 35 30 28 33 39 39 43 48 48 46 45 37 34 29 24 22 22 23 24 27 28 31 31 31
31 32 29 27 29 30 30 28 28 28 28 28 27 21 16 16 15 17 21 23 24 23 24 35 41 26 31 33 43 38 31 30 34 36 39 43 45 48 49 48 45 40 35 33 27 23 23 26 26 27 27 29 33 31
26 28 31 30 28 27 26 27 29 28 26 21 16 16 17 18 23 30 30 28 30 32 34 21 29 43 36 39 38 38 37 37 39 42 44 46 49 49 50 46 42 38 33 31 29 25 27 29 28 25 25 26 30 30
36 37 36 34 32 30 29 27 26 21 19 20 22 23 28 33 40 43 44 40 39 26 34 32 28 31 30 34 38 39 37 33 42 44 47 48 49 49 45 43 39 34 31 30 30 31 27 30 29 27 27 26 25 25
44 44 39 35 33 30 26 24 25 25 27 29 30 34 38 44 46 46 55 54 36 29 29 40 36 36 32 31 32 34 35 39 42 45 46 47 44 44 40 36 34 31 30 31 30 28 26 27 29 27 23 21 21 21
44 43 38 34 31 29 29 30 31 31 32 38 42 42 43 48 45 44 46 45 38 37 35 32 30 30 29 32 36 39 41 44 45 43 43 41 38 37 35 34 31 28 26 25 25 25 26 26 25 21 20 17 15 14
46 43 41 39 38 36 34 33 34 37 41 44 43 42 41 42 46 43 39 38 39 36 32 30 30 33 37 40 41 43 40 39 39 36 33 30 30 26 22 19 16 15 16 18 19 20 19 19 18 15 14 15 14 14
52 48 44 44 41 37 37 37 38 38 38 37 36 35 32 31 31 33 33 32 32 32 33 34 37 39 39 39 37 35 35 29 27 28 24 20 17 14 12 11 11 11 13 14 14 14 13 13 14 14 15 16 17 18
48 45 42 39 42 45 41 37 35 31 28 26 24 23 21 20 21 22 23 25 27 29 31 31 30 29 29 29 27 23 22 22 19 16 12 9 6 5 5 5 6 7 9 9 11 12 14 16 17 18 19 20 21 23
49 46 45 41 39 37 36 34 30 28 27 27 26 24 22 20 19 21 22 21 19 21 21 20 18 15 15 15 16 16 12 9 8 7 7 7 8 10 12 12 12 14 14 15 16 15 17 19 20 22 26 27 29 31
40 40 38 34 32 30 29 28 26 25 24 22 20 18 15 14 13 11 8 8 8 9 10 10 10 11 9 7 7 7 8 8 9 11 12 13 15 16 18 21 21 22 22 22 24 25 26 29 29 29 32 34 36 37
30 29 26 23 20 16 13 12 10 7 5 5 5 5 4 4 4 3 3 4 5 4 4 3 2 2 2 3 5 6 7 9 12 14 16 17 19 21 23 28 25 24 28 30 31 32 31 32 34 36 38 40 42 43
24 23 22 21 20 19 18 18 18 17 17 16 15 14 13 13 12 12 9 8 6 4 2 2 1 2 4 5 7 8 11 14 16 17 19 21 21 22 23 26 29 31 33 34 35 37 38 39 41 42 43 45 46 48
34 34 33 32 32 30 28 27 26 25 22 20 19 17 15 14 12 9 7 4 3 3 5 5 6 7 7 8 8 9 11 13 14 17 20 24 26 28 29 30 33 35 36 37 38 40 41 43 45 47 49 51 52 55
Wind_Direction
278 280 282 284 286 288 290 290 291 293 293 295 296 297 301 300 300 299 300 299 299 300 299 289 286 271 255 231 214 225 237 252 233 207 188 236 228 233 218 215 252 227 226 231 228 221 210 199 218 223 235 242 251 243
277 278 281 281 284 286 288 288 289 291 292 292 294 298 299 300 298 296 295 296 294 295 290 285 268 251 236 211 217 222 221 254 228 200 183 99 302 247 180 102 296 226 222 215 244 231 226 222 219 231 235 239 246 252
274 275 277 279 281 284 284 286 286 287 289 291 294 297 298 298 295 292 292 291 291 289 282 272 256 234 226 205 229 222 214 217 237 227 202 190 188 225 192 188 212 222 190 196 230 233 222 222 227 231 237 239 240 246
271 273 275 276 279 281 281 283 283 287 288 291 294 296 296 294 290 290 289 287 289 282 275 264 224 223 230 210 221 232 228 209 228 220 214 210 205 211 213 217 228 218 215 229 245 236 233 227 227 234 235 236 238 241
268 270 272 274 276 277 279 280 282 285 288 291 293 292 291 289 288 289 288 287 287 280 266 247 242 211 219 223 208 226 231 220 213 204 205 202 198 196 204 213 213 187 211 237 250 240 308 253 243 237 239 241 243 247
265 268 269 270 272 273 276 278 282 285 287 290 288 286 286 284 288 287 289 289 284 273 256 241 234 214 209 223 216 220 212 213 215 215 213 201 201 210 206 212 201 197 225 222 230 229 226 238 248 244 242 243 244 245
263 264 266 268 268 271 273 277 280 283 284 285 282 280 282 282 284 286 288 288 281 265 250 239 232 220 209 212 221 219 217 213 220 214 215 208 218 215 209 225 218 208 212 245 226 235 237 246 247 249 253 250 248 251
262 263 264 264 267 270 273 275 278 279 280 277 277 277 279 281 282 281 283 286 274 259 248 235 223 215 210 213 210 225 223 229 228 215 214 221 215 225 231 226 231 233 237 244 246 245 244 246 249 254 259 258 257 255
259 261 263 264 265 268 270 272 273 272 271 271 271 273 276 278 279 277 277 279 265 254 242 235 224 212 212 218 219 219 224 225 230 209 207 211 215 226 229 228 227 232 247 250 250 256 258 258 259 257 256 258 262 260
257 259 261 262 263 265 267 268 266 267 268 268 269 273 274 275 271 270 269 266 254 249 236 233 219 208 208 223 220 220 222 223 216 216 215 217 216 225 240 246 250 254 253 246 254 260 260 256 254 251 247 251 253 248
256 257 257 259 260 260 262 264 263 264 264 264 267 269 269 270 265 263 263 256 246 241 231 230 217 217 221 225 222 228 226 220 220 222 222 226 240 247 251 252 254 258 260 263 264 265 265 267 264 259 247 259 255 249
253 254 254 255 257 258 258 258 259 260 262 261 263 262 263 265 257 257 257 253 245 237 228 227 223 218 210 204 217 221 219 217 223 228 232 234 249 253 255 257 260 262 263 265 268 269 271 272 272 267 261 255 254 249
251 252 253 253 254 254 255 255 255 255 254 254 254 254 257 255 251 251 258 251 241 234 229 231 226 212 203 201 217 215 217 221 227 233 238 238 244 249 255 261 264 268 272 274 274 274 278 281 279 273 266 257 253 244
248 249 249 250 250 250 249 249 248 248 249 248 246 245 248 249 252 252 249 240 233 226 227 226 227 212 198 201 208 214 217 223 230 234 236 248 252 259 264 270 273 277 283 285 285 288 288 288 290 296 279 264 253 248
246 246 246 245 244 244 244 242 240 239 238 241 238 236 239 244 248 249 244 237 232 226 225 222 229 213 194 202 202 210 212 229 239 244 245 256 263 267 271 280 287 293 298 302 303 299 291 274 151 234 268 272 256 247
243 242 239 239 238 238 238 236 233 229 229 230 229 231 236 238 242 244 243 237 227 219 220 222 228 218 199 202 203 205 218 235 244 246 248 259 270 279 285 292 304 305 306 307 304 297 282 257 208 225 250 260 260 255
235 237 237 235 232 233 233 230 226 223 224 223 224 227 231 234 237 241 237 227 222 217 219 221 223 222 205 202 206 210 227 238 239 248 258 269 276 282 288 291 304 305 304 304 298 289 275 265 257 250 243 256 256 256
225 224 226 225 223 222 223 222 221 221 218 220 222 224 230 237 240 237 228 229 226 222 220 219 216 219 203 202 213 220 226 237 245 253 263 269 276 282 286 295 301 304 303 300 289 284 275 267 261 261 262 262 263 264
215 213 211 210 210 209 207 210 208 212 215 216 218 222 230 235 230 228 231 228 222 217 213 210 205 210 205 205 218 229 236 243 251 258 262 268 280 284 293 299 302 304 302 294 284 281 281 284 280 272 266 265 268 271
205 204 201 200 199 200 201 203 206 209 206 210 218 224 225 219 224 222 215 208 200 192 192 194 196 206 211 211 227 231 240 249 261 267 270 277 283 289 296 297 301 297 292 291 288 286 285 281 282 278 276 274 272 271
194 196 191 185 184 187 190 192 194 197 200 203 210 208 208 211 195 187 181 174 167 169 175 180 191 211 222 204 227 242 249 260 265 267 276 281 282 288 291 297 297 292 289 288 291 287 293 298 289 280 274 271 272 275
171 171 169 172 170 169 172 179 181 184 192 195 192 191 184 170 170 157 144 142 151 159 171 168 211 200 217 225 236 245 251 259 266 273 275 280 286 290 294 295 293 291 293 294 299 302 307 297 290 277 267 265 270 276
152 152 155 161 163 161 166 173 178 179 177 175 172 163 162 156 153 150 132 122 118 121 165 186 206 212 216 227 239 245 250 254 263 270 278 284 286 292 295 291 290 289 290 296 302 303 300 291 288 280 275 275 280 279
143 141 145 149 154 160 160 161 162 164 164 161 157 158 152 152 154 154 149 156 161 171 186 201 209 212 224 233 242 253 260 263 268 276 281 289 296 293 288 287 287 288 291 297 297 292 289 285 282 280 284 277 274 277
138 139 139 140 141 147 149 150 152 152 152 150 144 149 156 160 165 166 172 176 191 201 205 207 210 217 229 240 245 252 260 268 276 288 295 291 287 288 288 288 286 284 279 281 284 288 285 280 278 279 274 270 265 263
125 128 131 135 138 142 145 145 147 150 151 152 159 166 165 172 175 176 185 186 200 205 215 219 223 231 238 247 255 262 273 285 292 288 287 293 297 302 302 301 294 284 279 280 282 284 282 277 275 273 266 260 254 248
129 134 138 142 138 138 136 138 140 146 153 158 161 165 169 173 182 190 197 203 210 217 222 230 237 241 248 258 269 280 284 284 289 296 301 301 294 297 304 306 305 301 296 288 280 279 277 275 272 267 261 257 253 253
122 123 126 129 132 138 138 137 138 142 148 155 159 161 168 176 182 192 204 210 215 226 236 245 255 265 275 278 277 275 283 291 294 293 297 299 310 322 317 318 311 305 298 296 296 287 283 283 281 279 273 269 266 267
127 130 131 132 133 134 135 136 139 144 148 152 158 168 179 188 200 213 224 232 244 254 260 269 268 265 269 273 277 280 281 265 254 262 276 291 301 309 308 307 302 297 298 303 298 296 291 286 282 279 276 274 275 275
122 125 129 134 137 139 144 149 155 162 170 174 182 193 204 218 235 249 261 257 250 252 262 271 273 272 267 266 276 272 269 267 276 288 296 299 302 298 296 294 292 293 295 291 289 288 290 289 288 286 285 285 285 284
121 122 125 129 132 130 125 121 126 133 138 145 151 166 170 178 185 196 225 241 239 225 197 182 183 225 239 244 258 273 289 296 296 297 298 298 301 302 301 297 301 299 295 293 292 289 286 283 282 282 282 282 280 278
105 107 109 109 109 108 106 107 106 105 103 102 102 103 102 101 104 106 118 119 110 106 131 123 174 245 292 305 303 301 295 297 302 303 302 304 304 300 299 297 297 297 297 295 294 294 294 292 290 288 287 285 284 283
103 103 103 103 101 99 96 95 94 93 93 93 91 90 89 90 89 89 89 78 56 10 349 329 316 314 307 317 321 318 315 316 320 316 315 312 311 309 306 302 299 299 299 298 297 296 294 292 291 290 289 288 287 286
Height
10651 10652 10653 10652 10652 10650 10648 10645 10642 10638 10633 10629 10624 10619 10616 10610 10605 10600 10594 10588 10582 10580 10578 10574 10572 10571 10572 10575 10578 10580 10586 10589 10592 10600 10608 10610 10612 10618 10626 10640 10644 10646 10657 10660 10667 10673 10677 10689 10687 10689 10695 10701 10708 10717
10625 10626 10630 10630 10629 10629 10627 10624 10621 10618 10614 10610 10606 10602 10598 10592 10587 10583 10578 10574 10570 10568 10567 10565 10563 10564 10567 10571 10574 10580 10585 10584 10586 10594 10600 10606 10609 10614 10627 10638 10627 10641 10647 10659 10656 10661 10675 10681 10681 10680 10683 10689 10691 10694
10599 10602 10606 10607 10607 10606 10605 10603 10601 10599 10595 10591 10588 10584 10580 10575 10571 10567 10563 10559 10558 10557 10556 10555 10556 10558 10562 10566 10570 10575 10577 10577 10582 10587 10592 10599 10600 10609 10615 10621 10620 10631 10638 10635 10642 10648 10656 10660 10670 10672 10674 10675 10678 10679
10575 10578 10582 10584 10584 10585 10584 10582 10580 10579 10577 10573 10570 10566 10562 10559 10555 10552 10550 10547 10547 10546 10547 10549 10549 10554 10556 10561 10565 10568 10572 10576 10579 10581 10584 10591 10598 10601 10605 10611 10618 10624 10629 10633 10634 10645 10648 10649 10650 10654 10657 10660 10663 10665
10549 10554 10556 10559 10562 10562 10563 10562 10560 10560 10559 10556 10552 10549 10547 10544 10542 10540 10538 10536 10537 10537 10538 10539 10540 10545 10552 10554 10559 10562 10566 10570 10573 10577 10581 10584 10590 10594 10599 10603 10611 10620 10619 10626 10630 10641 10650 10639 10638 10641 10646 10650 10653 10654
10525 10529 10533 10536 10539 10540 10542 10542 10542 10542 10541 10539 10537 10534 10534 10532 10531 10529 10527 10526 10527 10527 10529 10531 10532 10536 10543 10547 10552 10557 10561 10566 10570 10574 10577 10581 10583 10589 10594 10598 10604 10604 10609 10614 10620 10623 10631 10627 10629 10630 10631 10636 10640 10640
10501 10505 10509 10514 10516 10518 10521 10524 10524 10524 10523 10523 10521 10520 10520 10520 10520 10519 10518 10517 10517 10518 10520 10521 10524 10529 10534 10541 10545 10550 10556 10561 10565 10569 10573 10577 10581 10584 10587 10592 10597 10601 10609 10604 10606 10608 10613 10617 10615 10617 10621 10624 10626 10628
10478 10483 10486 10491 10495 10498 10501 10505 10506 10506 10507 10507 10507 10507 10508 10508 10509 10508 10508 10508 10508 10510 10511 10514 10517 10520 10527 10534 10539 10543 10548 10554 10559 10563 10567 10571 10575 10579 10584 10588 10590 10594 10594 10592 10596 10597 10600 10604 10603 10606 10607 10608 10612 10615
10455 10460 10465 10470 10474 10478 10482 10486 10488 10490 10491 10493 10493 10494 10495 10497 10498 10498 10499 10500 10500 10502 10503 10506 10509 10517 10522 10526 10531 10537 10541 10548 10553 10557 10561 10566 10570 10573 10577 10581 10584 10587 10588 10588 10589 10588 10589 10590 10591 10593 10594 10594 10595 10600
10434 10440 10446 10450 10455 10457 10462 10467 10470 10473 10475 10477 10479 10481 10483 10487 10488 10488 10490 10491 10492 10494 10495 10500 10505 10510 10510 10518 10525 10530 10534 10541 10547 10551 10556 10560 10564 10567 10571 10572 10574 10576 10578 10579 10579 10578 10578 10578 10579 10577 10580 10582 10584 10588
10413 10419 10425 10431 10435 10439 10444 10449 10453 10455 10459 10463 10467 10471 10471 10475 10477 10478 10480 10482 10483 10486 10489 10494 10498 10498 10508 10512 10519 10524 10528 10534 10539 10545 10550 10554 10558 10560 10563 10564 10566 10566 10566 10566 10564 10563 10563 10560 10562 10562 10564 10563 10566 10573
10390 10397 10403 10410 10415 10420 10426 10430 10434 10439 10445 10451 10454 10457 10459 10464 10467 10467 10468 10473 10476 10479 10483 10487 10490 10495 10502 10509 10513 10518 10522 10528 10533 10539 10543 10550 10548 10551 10552 10554 10555 10555 10553 10553 10550 10549 10546 10543 10541 10541 10543 10543 10546 10555
10368 10375 10382 10389 10395 10401 10405 10411 10418 10424 10430 10437 10441 10444 10449 10452 10454 10456 10460 10465 10469 10473 10477 10481 10485 10491 10497 10504 10510 10514 10518 10523 10529 10533 10537 10542 10538 10541 10542 10543 10542 10542 10540 10538 10536 10533 10531 10526 10523 10523 10523 10523 10525 10532
10347 10354 10361 10369 10375 10380 10387 10395 10403 10410 10416 10423 10428 10433 10438 10441 10443 10448 10453 10456 10461 10466 10470 10476 10480 10486 10493 10501 10506 10511 10516 10520 10522 10526 10533 10529 10531 10532 10534 10534 10533 10530 10527 10522 10520 10519 10513 10513 10513 10513 10511 10510 10512 10514
10329 10336 10343 10350 10357 10364 10372 10381 10389 10396 10403 10410 10417 10423 10427 10431 10435 10439 10444 10449 10455 10460 10465 10470 10474 10481 10489 10494 10500 10506 10510 10514 10515 10521 10527 10520 10525 10525 10525 10525 10523 10520 10515 10510 10508 10505 10502 10506 10502 10519 10498 10500 10500 10502
10314 10320 10327 10334 10342 10351 10359 10367 10376 10384 10391 10399 10407 10412 10417 10423 10427 10431 10436 10442 10447 10453 10459 10465 10469 10475 10481 10488 10494 10501 10505 10506 10508 10516 10514 10516 10517 10517 10516 10515 10513 10508 10503 10499 10496 10495 10493 10495 10497 10496 10496 10492 10491 10491
10300 10307 10315 10323 10332 10340 10348 10358 10366 10374 10383 10392 10397 10403 10410 10415 10420 10423 10429 10436 10441 10446 10451 10458 10465 10469 10477 10485 10491 10495 10498 10502 10504 10507 10507 10510 10510 10510 10508 10507 10504 10499 10494 10491 10487 10486 10486 10486 10486 10485 10484 10482 10482 10484
10290 10297 10305 10314 10323 10332 10341 10350 10359 10369 10377 10382 10389 10397 10404 10408 10413 10419 10424 10429 10433 10438 10444 10449 10459 10465 10475 10482 10484 10488 10492 10496 10500 10503 10502 10503 10502 10502 10500 10498 10494 10489 10484 10482 10479 10478 10477 10476 10476 10476 10475 10475 10474 10474
10281 10290 10298 10307 10314 10323 10332 10343 10353 10361 10369 10378 10387 10393 10397 10403 10410 10414 10418 10422 10425 10431 10437 10445 10453 10462 10470 10478 10484 10487 10490 10492 10495 10497 10495 10494 10494 10493 10491 10488 10484 10479 10476 10473 10471 10471 10470 10469 10468 10467 10466 10465 10465 10464
10277 10285 10293 10302 10312 10322 10331 10339 10348 10358 10368 10375 10382 10389 10395 10402 10405 10410 10413 10416 10422 10428 10435 10443 10454 10464 10473 10478 10480 10482 10484 10487 10490 10490 10487 10487 10486 10483 10482 10479 10477 10471 10468 10466 10464 10463 10463 10463 10461 10458 10457 10455 10455 10455
10274 10282 10293 10304 10312 10321 10329 10339 10349 10358 10366 10374 10381 10387 10394 10399 10403 10407 10410 10416 10424 10431 10439 10449 10455 10470 10468 10475 10472 10477 10480 10483 10481 10482 10481 10478 10476 10475 10473 10470 10466 10463 10461 10458 10456 10455 10455 10453 10450 10448 10446 10445 10444 10444
10276 10285 10298 10306 10315 10324 10333 10342 10349 10359 10367 10374 10381 10386 10392 10398 10403 10408 10415 10422 10430 10436 10445 10458 10459 10462 10463 10467 10472 10474 10475 10475 10473 10473 10471 10470 10468 10466 10462 10459 10456 10453 10451 10450 10448 10447 10445 10442 10440 10439 10437 10436 10434 10435
10279 10290 10300 10310 10319 10328 10337 10346 10353 10361 10369 10374 10380 10386 10392 10398 10404 10410 10419 10433 10437 10442 10446 10445 10449 10456 10461 10464 10466 10467 10467 10468 10465 10463 10462 10461 10460 10456 10452 10449 10447 10445 10444 10442 10440 10438 10436 10433 10431 10431 10429 10429 10428 10427
10285 10296 10307 10316 10325 10333 10341 10349 10357 10364 10370 10376 10383 10389 10395 10402 10408 10415 10423 10429 10433 10434 10438 10445 10448 10452 10456 10458 10460 10460 10459 10458 10457 10456 10455 10453 10450 10446 10442 10439 10436 10434 10433 10432 10430 10427 10427 10426 10424 10424 10423 10422 10421 10419
10298 10307 10318 10327 10333 10340 10346 10354 10360 10367 10374 10381 10388 10394 10399 10405 10412 10420 10428 10432 10434 10436 10438 10442 10446 10450 10453 10453 10452 10451 10451 10451 10450 10450 10448 10445 10439 10435 10431 10428 10425 10424 10422 10421 10421 10420 10419 10418 10419 10418 10417 10416 10416 10415
10314 10322 10329 10336 10342 10348 10354 10361 10368 10374 10380 10386 10391 10397 10403 10408 10414 10420 10423 10429 10430 10437 10440 10443 10444 10444 10444 10445 10446 10445 10445 10445 10445 10442 10437 10435 10429 10424 10421 10417 10414 10414 10414 10414 10413 10413 10413 10413 10412 10412 10412 10412 10412 10412
10329 10335 10340 10344 10350 10357 10364 10371 10377 10384 10389 10394 10399 10404 10409 10413 10418 10422 10426 10429 10433 10435 10437 10438 10439 10439 10440 10440 10441 10442 10440 10438 10435 10432 10428 10425 10423 10420 10418 10415 10414 10412 10411 10410 10410 10409 10408 10407 10407 10408 10408 10408 10408 10408
10343 10348 10355 10360 10366 10370 10376 10383 10389 10394 10399 10403 10408 10411 10414 10417 10421 10424 10425 10428 10430 10432 10433 10434 10435 10435 10436 10436 10435 10434 10432 10431 10429 10426 10425 10422 10420 10418 10416 10415 10413 10411 10410 10409 10408 10408 10407 10405 10404 10402 10402 10403 10403 10402
10357 10362 10367 10374 10380 10385 10389 10393 10397 10401 10404 10408 10411 10413 10416 10419 10422 10424 10426 10427 10428 10430 10431 10432 10431 10431 10430 10429 10428 10428 10427 10426 10425 10424 10421 10420 10418 10418 10416 10414 10413 10411 10408 10407 10405 10403 10402 10401 10400 10399 10396 10395 10394 10393
10373 10377 10381 10386 10390 10393 10396 10399 10402 10405 10407 10411 10413 10415 10418 10420 10422 10423 10425 10426 10426 10426 10426 10425 10425 10425 10425 10424 10424 10425 10425 10424 10423 10421 10419 10418 10418 10415 10412 10410 10407 10405 10404 10402 10400 10398 10396 10393 10392 10390 10388 10386 10384 10381
10384 10388 10391 10394 10398 10401 10404 10407 10409 10411 10413 10415 10417 10418 10420 10420 10421 10422 10423 10423 10423 10423 10423 10423 10423 10424 10424 10424 10424 10423 10422 10421 10419 10418 10416 10414 10411 10410 10407 10403 10401 10400 10396 10394 10391 10389 10387 10384 10382 10380 10377 10375 10372 10369
10396 10399 10401 10404 10406 10409 10411 10412 10414 10416 10417 10418 10419 10421 10421 10422 10423 10422 10424 10425 10425 10426 10425 10425 10424 10423 10423 10423 10423 10421 10419 10417 10416 10414 10411 10408 10406 10403 10401 10398 10393 10390 10387 10384 10380 10376 10373 10370 10367 10364 10362 10359 10355 10352
10408 10410 10412 10415 10416 10418 10420 10421 10421 10422 10424 10425 10426 10427 10427 10428 10428 10428 10428 10428 10428 10427 10426 10425 10424 10423 10421 10420 10420 10418 10416 10414 10412 10408 10406 10403 10400 10397 10393 10390 10384 10380 10375 10371 10368 10364 10361 10358 10354 10350 10346 10342 10339 10333